Tracking 28514 objects as of 24-Feb-2024
HD Live streaming from Space Station
objects crossing your sky now

THOR ABLESTAR DEB

Track THOR ABLESTAR DEB now!
10-day predictions


NORAD ID: 559
Int'l Code: 1961-015GR
Perigee: 683.0 km
Apogee: 763.3 km
Inclination: 66.6 °
Period: 99.1 minutes
Semi major axis: 7094 km
RCS: 0.0375 m2 (small)
Launch date: June 29, 1961
Source: United States (US)
Launch site: AIR FORCE EASTERN TEST RANGE (AFETR)

Note: This is SATELLITE DEBRIS
Your satellite tracking list
Your tracking list is empty




NASA's NSSDC Master Catalog

Two Line Element Set (TLE):
1   559U 61015GR  24054.58433976  .00005005  00000-0  12086-2 0  9991
2   559  66.6058 114.5640 0056597  58.4878 302.1742 14.52969260226626
Source of the keplerian elements: AFSPC